Погода в Кемпере

Франция     47°59′50″N   4°06′05″W
темп.,
°C
ветер,
м/с
пор.,
м/с
влажн.,
%
обл.,
%
осадки,
мм/ч
давл.,
гПа
погр.,
м
11 мая, вт
вт1123:00+7ююз2590100 0.0 100694
02:00+6ю2594100 0.3 100787
05:00+6ююз39926 0.1 1006241
08:00+8ююз5127932 0.3 1007667
11:00+9юз81491100 2.0 10071080
14:00+11зюз9148056 3.2 10091456
17:00+13зюз8126018 0.6 10111592
20:00+10зюз597662 0.9 10121101
12 мая, ср
ср1223:00+7ююз2389100 0.0 101377
02:00+6ю239541 0.4 101360
05:00+6вюв229277 0.0 101016
08:00+8юв2798100 2.5 1009378
11:00+10ююв71596100 7.7 10071306
14:00+11ююв81393100 8.9 10061009
17:00+8сз61192100 1.9 1009938
20:00+10з59774 2.0 10101186
13 мая, чт
чт1323:00+8з4119552 0.2 1011523
02:00+8зюз4119560 0.4 1011518
05:00+8зюз4119556 0.4 1010516
08:00+9зюз5119195 0.8 1009777
11:00+11зюз599096 1.1 1009887
14:00+12зюз698794 3.4 1008921
17:00+12зюз468177 2.0 1008974
20:00+12з35747 2.2 1008922
14 мая, пт
пт1423:00+7ссз24957 0.1 101073
02:00+6зсз22969 0.1 101022
05:00+6з239586 0.0 101085
08:00+8зюз3109329 0.0 1010505
11:00+13зсз6107223 0.4 10111323
14:00+14сз686230 0.8 10121482
17:00+14зсз687238 0.7 10131185
20:00+12зсз587915 1.0 1014880
15 мая, сб
сб1523:00+7з239698 0.0 101685
02:00+7зюз1296100 0.0 101651
05:00+7ююз1296100 0.0 101523
08:00+10ююз3890100 0.1 1014518
11:00+10ю61196100 1.5 1012862
14:00+10юв61298100 5.1 1008830
17:00
20:00+11з71484100 0.6 1009821